Regional Weather Roundup
Issued by NWS

Home | Current Version | Previous Version | Text Only | Print | Product List | Glossary On
Versions: 1 2 3 4 5 6 7 8 9 10 11 12 13 14 15 16 17 18 19 20 21 22 23 24 25 26 27 28
000
ASUS45 KGTF 260110
RWRMT
MONTANA HOURLY WEATHER ROUNDUP
NATIONAL WEATHER SERVICE GREAT FALLS MT
700 PM MDT SAT APR 25 2015

NOTE: "FAIR" INDICATES FEW OR NO CLOUDS BELOW 12000 FEET WITH NO
SIGNIFICANT WEATHER AND/OR OBSTRUCTIONS TO VISIBILITY.

MTZ001>007-043-260200-
WEST OF THE DIVIDE

CITY           SKY/WX    TMP DP  RH WIND       PRES   REMARKS
KALISPELL      MOCLDY    52  26  36 W7        29.82R
MISSOULA       MOSUNNY   52  24  33 NW14      29.80S
BUTTE          PTSUNNY   44  27  51 NE10      29.79S
DEER LODGE       N/A     48  25  40 E14       29.82S
EUREKA           N/A     54  27  35 S5        29.85
HAMILTON         N/A     52  21  30 N14       29.76R
LIBBY            N/A     46  34  61 SE6       29.89S
$$

MTZ008-052>055-260200-
SOUTHWEST MONTANA

CITY           SKY/WX    TMP DP  RH WIND       PRES   REMARKS
BOZEMAN        PTSUNNY   49  30  48 CALM      29.79S
DILLON         CLOUDY    46  30  53 NE10      29.75F
$$

MTZ009-010-012-014-046-048-049-054-260200-
EAST SLOPES AND CENTRAL MONTANA

CITY           SKY/WX    TMP DP  RH WIND       PRES   REMARKS
CUT BANK       PTSUNNY   45  26  47 NE15      29.87R
GREAT FALLS    MOSUNNY   51  25  36 N8        29.83R
MALMSTROM AFB  MOSUNNY   51  24  35 E9        29.83R
HELENA         CLOUDY    48  33  56 NE14      29.81R
$$

MTZ011-013-016-021-045-047-050-051-260200-
NORTH CENTRAL MONTANA

CITY           SKY/WX    TMP DP  RH WIND       PRES   REMARKS
HAVRE          CLOUDY    47  32  56 NW13      29.87R
LEWISTOWN      SUNNY     50  30  46 NW7       29.83R
CHINOOK          N/A     45  32  61 NW10      29.86R
FORT BENTON      N/A     50  28  43 N14       29.86R
$$

MTZ017>020-022>042-056>058-061-062-260200-
EASTERN PLAINS

CITY           SKY/WX    TMP DP  RH WIND       PRES   REMARKS
BAKER          CLOUDY    42  40  92 W13       29.84R
BILLINGS       MOSUNNY   48  34  58 NE8       29.82F
GLASGOW        CLOUDY    46  41  82 NW13      29.81R
JORDAN           N/A     51  39  63 NW13      29.81R
LIVINGSTON     CLOUDY    48  35  60 E10       29.80R
MILES CITY     CLOUDY    48  40  73 NW7       29.83R
SIDNEY         CLOUDY    46  43  87 W14       29.80R
WOLF POINT     CLOUDY    46  41  82 NW12G21   29.81R
BIG TIMBER       N/A     45  37  76 N12       29.83R
FORSYTH          N/A     48  39  71 CALM      29.84R
PLENTYWOOD       N/A     54  45  71 SE10      29.75S
POPLAR           N/A     45  45 100 SW7       29.81R
$$

REGIONAL REPORTS...DAKOTAS

CITY           SKY/WX    TMP DP  RH WIND       PRES   REMARKS
WILLISTON      CLOUDY    54  44  69 S13       29.78R
MINOT          CLOUDY    53  41  63 SE13      29.84R
DICKINSON      CLOUDY    47  44  90 S10       29.80R FOG
BEACH          CLOUDY    43  43 100 W10       29.83R
CROSBY         CLOUDY    54  43  66 SE14G22   29.80R
WATFORD CITY   CLOUDY    52  45  76 S14G23    29.78R
BISMARCK       CLOUDY    49  43  80 SE9       29.87R
GRAND FORKS    MOCLDY    62  38  40 S6        29.91R
FARGO          CLEAR     60  35  39 SE9       29.90R
BUFFALO SD       N/A     45  42  89 N20       29.76R
RAPID CITY     CLOUDY    52  47  83 NE7       29.79R
$$

REGIONAL REPORTS...WYOMING/IDAHO/WASHINGTON

CITY           SKY/WX    TMP DP  RH WIND       PRES   REMARKS
GILLETTE       MOCLDY    45  35  68 N14       29.83R
SHERIDAN       CLOUDY    44  35  70 N6        29.86R
BUFFALO WY     PTSUNNY   42  34  73 NW15G28   29.84R
CODY           CLOUDY    45  34  65 N12       29.81R
YELLOWSTONE LA   N/A     36  23  59 CALM      29.82R
IDAHO FALLS    CLOUDY    53  29  39 NE10      29.72S
SALMON         CLOUDY    52  25  35 SE6       29.74R
BOISE          PTSUNNY   58  27  30 NW21G30   29.78R
SPOKANE        LGT RAIN  48  37  65 NE12      29.88R
$$

REGIONAL REPORTS...ALBERTA

CITY           SKY/WX    TMP DP  RH WIND       PRES   REMARKS
EDMONTON       CLOUDY    45  14  29 E8        30.02R
CALGARY        CLOUDY    32  25  74 N17       29.99R WCI  21
LETHBRIDGE     PTSUNNY   43  28  56 N12G24    29.93R
MEDICINE HAT   CLOUDY    37  32  81 N12       29.93R WCI  30
$$

REGIONAL REPORTS...SASKATCHEWAN

CITY           SKY/WX    TMP DP  RH WIND       PRES   REMARKS
SWIFT CURRENT  LGT SNOW  32  32 100 NW14      29.83R VSB 1   WCI  22
REGINA         CLOUDY    50  41  71 SE15G21   29.80R
SASKATOON      LGT SNOW  32  30  93 NE21G28   29.95R VSB 1   WCI  20
$$



USA.gov is the U.S. government's official web portal to all federal, state and local government web resources and services.